Location: Doazon
(43.4500°N, 0.5500°W)
Time: 00:52:36
(UTC+00:00)

Cosmos 2297 Rocket - Pass Details

Date: 05 December 2025
Orbit: 837 x 844 km, 71.0° (Epoch: 19 January)

Event Time Altitude Azimuth Distance (km) Brightness Sun altitude
Rises 19:18:49 0° 325° (NW) 3,409 5.7 -30.5°
Reaches altitude 10° 19:21:31 10° 316° (NW) 2,470 5.1 -31.0°
Maximum altitude 19:26:23 30° 256° (WSW) 1,463 3.9 -31.9°
Drops below altitude 10° 19:31:13 10° 197° (SSW) 2,456 4.8 -32.8°
Sets 19:33:55 0° 187° (S) 3,386 5.4 -33.3°
